"Pseudo-MPEC" for P110Nxq

Created 2020 May 24 11:07:18 UT using Find_Orb

Click here for an explanation of pseudo-MPECs

 
 Astrometry: 
     P110Nxq  C2020 05 22qsn+@!2RAstrometry),j:KmG\fIredacted;$+LQDL=`;ExfrnZF51
     P110Nxq  C2020 05 22$4\clickj@?w]dkb18yRaW]g.':KA/K?Owh/UVEFw?w4)hPnOFBaF51
     P110Nxq  C2020 05 22]cod#uhere,f%;Qm%-$JS!C*iLr?uRIuN0Y8YCo.)6bcQ:00G45TF51
     P110Nxq  C2020 05 22iX8X_0RZ!UEe47x2,-ovoX(cC8dWM!,for03kteexplanation%7F51
     P110Nxq  C2020 05 23.14279 12 37 30.59 -26 42 30.4    ~5N3q 20.1 GVNEOCPI52
     P110Nxq  C2020 05 23.14355 12 37 30.63 -26 42 27.8    ~5N3q 19.9 GVNEOCPI52
     P110Nxq  C2020 05 23.14432 12 37 30.71 -26 42 25.2    ~5N3q 20.2 GVNEOCPI52
     P110Nxq  C2020 05 23.14509 12 37 30.77 -26 42 22.8    ~5N3q 19.6 GVNEOCPI52
     P110Nxq ^C2020 05 23.24608112 37 39.109-26 36 55.96   ~5N6M 20.03GVNEOCP568
     P110Nxq ^C2020 05 23.24702612 37 39.185-26 36 52.93   ~5N6M 20.07GVNEOCP568
     P110Nxq ^C2020 05 23.24797512 37 39.255-26 36 49.91   ~5N6M 20.07GVNEOCP568
     P110Nxq  C2020 05 24.14564 12 38 52.76 -25 48 53.8    ~5O3q 19.4 GVNEOCPI52
     P110Nxq  C2020 05 24.15019 12 38 53.11 -25 48 39.9    ~5O3q       VNEOCPI52
     P110Nxq  C2020 05 24.15096 12 38 53.21 -25 48 36.8    ~5O3q       VNEOCPI52
     P110Nxq  C2020 05 24.15173 12 38 53.25 -25 48 34.4    ~5O3q       VNEOCPI52

Station data:
(568) Mauna Kea  (N19.826116 W155.472200)  US/Hawaii.
(F51) Pan-STARRS 1, Haleakala  (N20.707235 W156.255910)  US/Hawaii.
   Observers N. Primak, A. Schultz, S. Watters, J. Thiel, T. Goggia. Measurer
   PS1 Science Consortium. 1.8-m Ritchey-Chrétien + CCD.
(I52) Steward Observatory, Mt. Lemmon Station  (N32.442547 W110.788920)
   US/Arizona.  Observers T. A. Pruyne, B. M. Africano, E. J. Christensen, G.
   A. Farneth, D. C. Fuls, A. R. Gibbs, A. D. Grauer, H. Gröller, J. A.
   Johnson, R. A. Kowalski, S. M. Larson, G. J. Leonard, D. Rankin, R. L.
   Seaman, F. C. Shelly. 1.0-m reflector + CCD.

Orbital elements:  P110Nxq
   Perihelion 2020 Jun 4.133740 +/- 1.31 TT =  3:12:35 (JD 2459004.633740)
Epoch 2020 May 24.0 TT = JDT 2458993.5   Earth MOID: 0.6147   Ma: 0.0874
M 357.45344003 +/- 0.41             (J2000 ecliptic)          AutoNEOCP
n   0.22872458 +/- 0.0194           Peri.  352.56448 +/- 0.7
a   2.64805796 +/- 0.15             Node   235.44393 +/- 0.39
e   0.3871959 +/- 0.0298            Incl.   42.19620 +/- 0.8
P   4.31                   H 18.6   G  0.15   U 10.1  
q 1.62274057 +/- 0.0147    Q 3.67337535 +/- 0.322
From 15 observations 2020 May 22-24 (45.3 hr); mean residual 0".14
Residuals in arcseconds: 
200522 F51  .05-  .08-    200523 I52  .21-  .01-    200523 568  .00   .02-    
200522 F51  .06+  .05+    200523 I52  .07+  .12+    200524 I52  .15-  .15+    
200522 F51  .03+  .06-    200523 I52  .08+  .04+    200524 I52  .22-  .46-    
200522 F51  .03-  .10+    200523 568  .02-  .01+    200524 I52  .32+  .18+    
200523 I52  .04+  .16-    200523 568  .03+  .01+    200524 I52  .05+  .13+    

Ephemerides (geocentric):
Date (UTC) HH   RA              Dec         delta   r     elong  mag " sig PA
---- -- -- --  -------------   -----------  ------ ------ -----  --- ---- ---
2020 05 24 11  12 39 18.584   -25 32 07.44  .75848 1.6252 132.6 20.3 .290  65
2020 05 24 12  12 39 22.043   -25 29 54.86  .75863 1.6252 132.6 20.3 .313  69
2020 05 24 13  12 39 25.505   -25 27 42.34  .75878 1.6252 132.6 20.3 .338  72
2020 05 24 14  12 39 28.968   -25 25 29.88  .75893 1.6252 132.5 20.3 .364  75
2020 05 24 15  12 39 32.434   -25 23 17.47  .75908 1.6251 132.5 20.3 .392  77
2020 05 24 16  12 39 35.902   -25 21 05.11  .75923 1.6251 132.5 20.3 .422  79
2020 05 24 17  12 39 39.371   -25 18 52.81  .75938 1.6251 132.5 20.3 .452  81
2020 05 24 18  12 39 42.843   -25 16 40.57  .75954 1.6251 132.4 20.3 .485  83
2020 05 24 19  12 39 46.317   -25 14 28.38  .75969 1.6251 132.4 20.3 .518  85
2020 05 24 20  12 39 49.794   -25 12 16.25  .75985 1.6250 132.4 20.3 .553  86
2020 05 24 21  12 39 53.272   -25 10 04.18  .76000 1.6250 132.3 20.3 .589  87
2020 05 24 22  12 39 56.752   -25 07 52.16  .76016 1.6250 132.3 20.3 .626  88
2020 05 24 23  12 40 00.235   -25 05 40.21  .76031 1.6250 132.3 20.3 .664  89
2020 05 25 00  12 40 03.720   -25 03 28.30  .76047 1.6250 132.3 20.3 .703  90
2020 05 25 01  12 40 07.206   -25 01 16.46  .76063 1.6250 132.2 20.3 .744  91
2020 05 25 02  12 40 10.695   -24 59 04.68  .76078 1.6249 132.2 20.3 .785  92
2020 05 25 03  12 40 14.186   -24 56 52.95  .76094 1.6249 132.2 20.3 .828  93
2020 05 25 04  12 40 17.679   -24 54 41.28  .76110 1.6249 132.2 20.3 .872  94
2020 05 25 05  12 40 21.174   -24 52 29.67  .76126 1.6249 132.1 20.3 .916  94
2020 05 25 06  12 40 24.672   -24 50 18.12  .76142 1.6249 132.1 20.3 .962  95
2020 05 25 07  12 40 28.171   -24 48 06.62  .76158 1.6248 132.1 20.3 1.01  95
2020 05 25 08  12 40 31.672   -24 45 55.19  .76174 1.6248 132.1 20.3 1.06  96
2020 05 25 09  12 40 35.176   -24 43 43.82  .76190 1.6248 132.0 20.3 1.11  96
2020 05 25 10  12 40 38.681   -24 41 32.50  .76206 1.6248 132.0 20.3 1.16  97
2020 05 25 11  12 40 42.189   -24 39 21.25  .76222 1.6248 132.0 20.3 1.21  97
2020 05 25 12  12 40 45.699   -24 37 10.05  .76239 1.6248 131.9 20.3 1.26  98
2020 05 25 13  12 40 49.210   -24 34 58.92  .76255 1.6247 131.9 20.3 1.31  98
2020 05 25 14  12 40 52.724   -24 32 47.84  .76271 1.6247 131.9 20.3 1.36  98
2020 05 25 15  12 40 56.240   -24 30 36.83  .76288 1.6247 131.9 20.3 1.42  99
2020 05 25 16  12 40 59.758   -24 28 25.88  .76304 1.6247 131.8 20.3 1.47  99
2020 05 25 17  12 41 03.278   -24 26 14.99  .76321 1.6247 131.8 20.3 1.53  99
2020 05 25 18  12 41 06.800   -24 24 04.16  .76337 1.6247 131.8 20.3 1.59 100
2020 05 25 19  12 41 10.324   -24 21 53.39  .76354 1.6246 131.8 20.3 1.65 100
2020 05 25 20  12 41 13.850   -24 19 42.68  .76370 1.6246 131.7 20.3 1.71 100
2020 05 25 21  12 41 17.378   -24 17 32.04  .76387 1.6246 131.7 20.3 1.77 100
2020 05 25 22  12 41 20.908   -24 15 21.46  .76404 1.6246 131.7 20.3 1.83 101
2020 05 25 23  12 41 24.440   -24 13 10.94  .76421 1.6246 131.6 20.3 1.89 101
2020 05 26 00  12 41 27.975   -24 11 00.48  .76438 1.6246 131.6 20.3 1.96 101
2020 05 26 01  12 41 31.511   -24 08 50.08  .76454 1.6245 131.6 20.3 2.02 101
2020 05 26 02  12 41 35.049   -24 06 39.75  .76471 1.6245 131.6 20.3 2.09 101
2020 05 26 03  12 41 38.589   -24 04 29.48  .76488 1.6245 131.5 20.3 2.15 102
2020 05 26 04  12 41 42.132   -24 02 19.28  .76506 1.6245 131.5 20.3 2.22 102
2020 05 26 05  12 41 45.676   -24 00 09.14  .76523 1.6245 131.5 20.3 2.29 102
2020 05 26 06  12 41 49.222   -23 57 59.06  .76540 1.6245 131.4 20.3 2.36 102
2020 05 26 07  12 41 52.771   -23 55 49.04  .76557 1.6244 131.4 20.3 2.43 102
2020 05 26 08  12 41 56.321   -23 53 39.09  .76574 1.6244 131.4 20.3 2.50 102
2020 05 26 09  12 41 59.873   -23 51 29.21  .76592 1.6244 131.4 20.3 2.57 102
2020 05 26 10  12 42 03.427   -23 49 19.39  .76609 1.6244 131.3 20.4 2.64 103